Location: ?????????
(54.7630°N, 39.4991°E)
Time: 01:42:06
(UTC+00:00)

Meteor 2-21 - Pass Details

Date: 14 April 2026
Orbit: 934 x 965 km, 82.5° (Epoch: 20 May)

Event Time Altitude Azimuth Distance (km) Brightness Sun altitude
Rises 17:53:57 0° 348° (NNW) 3,625 8.3 -12.3°
Reaches altitude 10° 17:56:26 10° 349° (N) 2,681 7.6 -12.6°
Maximum altitude 18:02:36 84° 79° (ENE) 965 4.4 -13.3°
Enters shadow 18:08:24 12° 167° (SSE) 2,551 6.2 -13.9°
